Date String (YYYY-MM-DD hh:mm:ss) UTC,Instrument flags,Ambient pressure (hPa),Sample flow (lpm),Bypass flow (lpm),Sample temperature (°C),Ambient temperature (°C),ASC tube jacket temperature (°C),LED temperature (°C),Box temperature (°C),Sample RH (%),Span deviation,Mass concentration (μg/m³),Mass concentration (μg/m³),Mass concentration (μg/m³)
DateTimeUTC,F1_M11,P_M11,Q1_M11,Q2_M11,T1_M11,T2_M11,T3_M11,T4_M11,T5_M11,U1_M11,ZSPAN_M11,X0_M11,X2_M11,X1_M11
2023-01-27 15:00:00,,0820.7,5.01,0.00,22.0,20.7,00.0,30.9,23.5,09.5,0000.0,0002.33,0000.42,0000.28
2023-01-27 15:01:00,,0820.8,5.02,0.00,21.9,20.2,00.0,30.9,23.3,09.7,0000.0,0002.32,0000.42,0000.29
2023-01-27 15:02:00,,0820.8,4.99,0.00,21.8,19.8,00.0,30.8,23.2,09.4,0000.0,0002.33,0000.43,0000.29
2023-01-27 15:03:00,,0820.8,5.00,0.00,21.7,19.5,00.0,30.8,23.0,09.6,0000.0,0002.35,0000.43,0000.29
2023-01-27 15:04:00,,0820.8,5.02,0.00,21.6,19.3,00.0,30.8,23.0,09.7,0000.0,0002.11,0000.40,0000.29
2023-01-27 15:05:00,,0820.8,5.00,0.00,21.5,19.2,00.0,30.7,22.9,09.7,0000.0,0002.04,0000.39,0000.29
2023-01-27 15:06:00,,0820.8,5.01,0.00,21.6,20.5,00.0,30.7,23.2,09.6,0000.0,0002.22,0000.39,0000.29
2023-01-27 15:07:00,,0820.7,5.01,0.00,21.7,21.9,00.0,30.6,23.6,09.7,0000.0,0002.74,0000.40,0000.30
2023-01-27 15:08:00,,0820.7,4.99,0.00,21.8,22.4,00.0,30.6,23.8,09.6,0000.0,0002.72,0000.40,0000.30
2023-01-27 15:09:00,,0820.7,5.02,0.00,21.8,21.7,00.0,30.7,23.6,09.7,0000.0,0002.68,0000.38,0000.30
2023-01-27 15:10:00,,0820.6,5.01,0.00,21.8,20.9,00.0,30.7,23.4,09.6,0000.0,0002.02,0000.37,0000.30
2023-01-27 15:11:00,,0820.6,5.00,0.00,21.7,20.4,00.0,30.7,23.2,09.6,0000.0,0001.31,0000.38,0000.30
2023-01-27 15:12:00,,0820.6,5.01,0.00,21.7,20.1,00.0,30.7,23.2,09.6,0000.0,0001.31,0000.37,0000.30
2023-01-27 15:13:00,,0820.6,4.99,0.00,21.6,19.9,00.0,30.7,23.1,09.6,0000.0,0001.28,0000.36,0000.30
2023-01-27 15:14:00,,0820.6,5.01,0.00,21.6,19.8,00.0,30.7,23.0,09.8,0000.0,0001.90,0000.36,0000.29
2023-01-27 15:15:00,,0820.6,4.99,0.00,21.5,19.7,00.0,30.6,23.0,09.7,0000.0,0001.95,0000.36,0000.29
2023-01-27 15:16:00,,0820.6,5.01,0.00,21.5,19.7,00.0,30.6,22.9,09.7,0000.0,0002.04,0000.40,0000.29
2023-01-27 15:17:00,,0820.5,5.01,0.00,21.4,19.6,00.0,30.6,22.8,09.8,0000.0,0002.08,0000.41,0000.30
2023-01-27 15:18:00,,0820.6,4.99,0.00,21.4,19.8,00.0,30.5,22.9,09.8,0000.0,0001.41,0000.42,0000.30
2023-01-27 15:19:00,,0820.6,5.01,0.00,21.5,21.1,00.0,30.5,23.2,09.8,0000.0,0001.53,0000.46,0000.30
2023-01-27 15:20:00,,0820.6,5.01,0.00,21.6,22.3,00.0,30.5,23.6,09.9,0000.0,0001.60,0000.48,0000.30
2023-01-27 15:21:00,,0820.5,4.99,0.00,21.8,22.7,00.0,30.5,23.8,09.8,0000.0,0001.64,0000.51,0000.30
2023-01-27 15:22:00,,0820.5,5.00,0.00,21.8,21.8,00.0,30.6,23.6,09.7,0000.0,0001.61,0000.50,0000.30
2023-01-27 15:23:00,,0820.5,5.01,0.00,21.7,21.1,00.0,30.6,23.3,09.8,0000.0,0002.14,0000.52,0000.30
2023-01-27 15:24:00,,0820.6,4.99,0.00,21.6,20.5,00.0,30.6,23.2,09.5,0000.0,0002.49,0000.52,0000.30
2023-01-27 15:25:00,,0820.5,5.00,0.00,21.6,20.2,00.0,30.6,23.1,09.7,0000.0,0002.00,0000.54,0000.30
2023-01-27 15:26:00,,0820.6,5.00,0.00,21.6,20.0,00.0,30.6,23.0,09.8,0000.0,0002.08,0000.55,0000.30
2023-01-27 15:27:00,,0820.6,5.02,0.00,21.5,19.8,00.0,30.5,22.9,10.0,0000.0,0002.12,0000.54,0000.31
2023-01-27 15:28:00,,0820.6,5.01,0.00,21.4,19.6,00.0,30.5,22.9,10.0,0000.0,0002.14,0000.54,0000.30
2023-01-27 15:29:00,,0820.6,4.99,0.00,21.4,19.5,00.0,30.5,22.8,09.9,0000.0,0002.22,0000.54,0000.31
2023-01-27 15:30:00,,0820.5,4.99,0.00,21.4,20.0,00.0,30.4,22.9,10.2,0000.0,0002.15,0000.53,0000.31
2023-01-27 15:31:00,,0820.6,5.00,0.00,21.5,21.5,00.0,30.4,23.2,10.0,0000.0,0002.11,0000.51,0000.30
2023-01-27 15:32:00,,0820.6,5.00,0.00,21.6,22.6,00.0,30.4,23.6,10.0,0000.0,0002.11,0000.49,0000.30
2023-01-27 15:33:00,,0820.4,4.99,0.00,21.7,22.4,00.0,30.4,23.6,09.9,0000.0,0002.28,0000.52,0000.30
2023-01-27 15:34:00,,0820.5,5.00,0.00,21.7,21.6,00.0,30.5,23.5,10.0,0000.0,0001.98,0000.51,0000.30
2023-01-27 15:35:00,,0820.5,5.02,0.00,21.7,20.9,00.0,30.5,23.3,10.1,0000.0,0001.50,0000.53,0000.31
2023-01-27 15:36:00,,0820.4,4.98,0.00,21.6,20.3,00.0,30.5,23.1,09.9,0000.0,0001.39,0000.51,0000.31
2023-01-27 15:37:00,,0820.3,4.99,0.00,21.5,19.9,00.0,30.5,23.0,09.8,0000.0,0001.29,0000.50,0000.31
2023-01-27 15:38:00,,0820.4,5.02,0.00,21.5,19.8,00.0,30.5,22.9,09.7,0000.0,0001.22,0000.50,0000.31
2023-01-27 15:39:00,,0820.4,5.00,0.00,21.4,19.6,00.0,30.5,22.8,09.9,0000.0,0001.22,0000.50,0000.31
2023-01-27 15:40:00,,0820.4,5.00,0.00,21.4,19.5,00.0,30.4,22.8,10.0,0000.0,0001.02,0000.48,0000.31
2023-01-27 15:41:00,,0820.5,4.99,0.00,21.3,19.5,00.0,30.4,22.7,10.1,0000.0,0000.99,0000.46,0000.31
2023-01-27 15:42:00,,0820.5,5.01,0.00,21.3,19.6,00.0,30.4,22.7,10.2,0000.0,0001.15,0000.48,0000.32
2023-01-27 15:43:00,,0820.4,5.02,0.00,21.4,20.9,00.0,30.3,23.1,10.5,0000.0,0001.13,0000.47,0000.32
2023-01-27 15:44:00,,0820.5,5.00,0.00,21.5,22.2,00.0,30.3,23.4,10.3,0000.0,0000.99,0000.45,0000.32
2023-01-27 15:45:00,,0820.5,5.00,0.00,21.7,22.7,00.0,30.4,23.7,10.3,0000.0,0001.75,0000.44,0000.31
2023-01-27 15:46:00,,0820.4,4.99,0.00,21.7,22.0,00.0,30.4,23.6,10.3,0000.0,0001.79,0000.45,0000.30
2023-01-27 15:47:00,,0820.4,5.02,0.00,21.7,21.3,00.0,30.5,23.4,10.2,0000.0,0001.79,0000.45,0000.30
2023-01-27 15:48:00,,0820.4,4.99,0.00,21.6,20.9,00.0,30.5,23.3,10.3,0000.0,0001.79,0000.45,0000.30
2023-01-27 15:49:00,,0820.4,4.99,0.00,21.6,20.6,00.0,30.5,23.3,10.3,0000.0,0001.74,0000.43,0000.30
2023-01-27 15:50:00,,0820.4,5.00,0.00,21.6,20.4,00.0,30.5,23.2,10.1,0000.0,0001.81,0000.46,0000.30
2023-01-27 15:51:00,,0820.4,4.99,0.00,21.6,20.2,00.0,30.5,23.1,10.3,0000.0,0001.80,0000.46,0000.29
2023-01-27 15:52:00,,0820.5,5.02,0.00,21.5,20.0,00.0,30.5,23.0,10.3,0000.0,0001.89,0000.44,0000.29
2023-01-27 15:53:00,,0820.5,5.00,0.00,21.4,19.7,00.0,30.5,22.9,10.0,0000.0,0002.25,0000.42,0000.28
2023-01-27 15:54:00,,0820.4,5.01,0.00,21.4,19.4,00.0,30.5,22.8,10.3,0000.0,0002.25,0000.43,0000.28
2023-01-27 15:55:00,,0820.4,5.00,0.00,21.3,19.2,00.0,30.4,22.7,10.2,0000.0,0002.17,0000.44,0000.28
2023-01-27 15:56:00,,0820.4,5.01,0.00,21.3,19.6,00.0,30.4,22.8,10.2,0000.0,0001.43,0000.46,0000.28
2023-01-27 15:57:00,,0820.4,5.01,0.00,21.4,21.2,00.0,30.3,23.1,09.9,0000.0,0001.40,0000.46,0000.29
2023-01-27 15:58:00,,0820.4,4.99,0.00,21.5,22.3,00.0,30.3,23.5,10.2,0000.0,0001.42,0000.47,0000.29
2023-01-27 15:59:00,,0820.4,5.00,0.00,21.6,21.7,00.0,30.4,23.4,10.2,0000.0,0001.46,0000.48,0000.28
